Weather History for London-Corbin, KY

Change the Weather History Date:

Wednesday, February 13, 2013

  Actual Average Record
Temperature  
Mean Temperature 37 °F 39 °F  
Max Temperature 44 °F 49 °F 78 °F (1962)
Min Temperature 29 °F 29 °F -9 °F (1955)
Degree Days  
Heating Degree Days 28 26  
Month to date heating degree days 347 353  
Since 1 July heating degree days 2930 2916  
Cooling Degree Days 0 0  
Month to date cooling degree days 0 0  
Year to date cooling degree days 0 0  
Moisture  
Dew Point 31 °F    
Average Humidity 71    
Maximum Humidity 92    
Minimum Humidity 49    
Precipitation  
Precipitation 0.11 in 0.12 in 1.47 in (1976)
Month to date precipitation 0.52 1.68  
Year to date precipitation 5.76 5.22  
Sea Level Pressure  
Sea Level Pressure 29.83 in    
Wind  
Wind Speed 5 mph (NNW)    
Max Wind Speed 15 mph    
Max Gust Speed 21 mph    
Visibility 8 miles    
Events Rain    
T = Trace of Precipitation, MM = Missing Value Source: NWS Daily Summary

Daily Weather History Graph

Daily Weather History Graph

Search for Another Location

Airport:

Trip Planner

Search our weather history database for the weather conditions in past years. The results will help you decide how hot, cold, wet, or windy it might be!

Date:

Astronomy

Feb. 13, 2013 Rise Set
Actual Time 7:27 AM EST 6:14 PM EST
Civil Twilight 7:00 AM EST 6:41 PM EST
Nautical Twilight 6:29 AM EST 7:11 PM EST
Astronomical Twilight 5:59 AM EST 7:41 PM EST
Moon 9:02 AM EST (2/13) 10:09 PM EST (2/13)
Length of Visible Light 11h 40m
Length of Day
10h 47m
Waxing Crescent, 13% of the Moon is Illuminated
Feb 13
Waxing Crescent
Feb 17
First Quarter
Feb 25
Full
Mar 4
Last Quarter
Mar 11
New

Hourly Weather History & Observations

Time (EST) Temp. Windchill Dew Point Humidity Pressure Visibility Wind Dir Wind Speed Gust Speed Precip Events Conditions
12:53 AM 44.1 °F 42.5 °F 26.1 °F 49% 29.85 in 10.0 mi NE 3.5 mph - N/A   Overcast
1:53 AM 42.1 °F 40.2 °F 28.0 °F 58% 29.83 in 10.0 mi NE 3.5 mph - N/A   Overcast
2:53 AM 43.0 °F - 28.0 °F 56% 29.80 in 10.0 mi Calm Calm - N/A   Overcast
3:53 AM 42.1 °F 39.2 °F 27.0 °F 55% 29.78 in 10.0 mi North 4.6 mph - N/A   Overcast
4:53 AM 42.1 °F 39.2 °F 28.0 °F 58% 29.74 in 10.0 mi North 4.6 mph - N/A   Overcast
5:53 AM 42.1 °F 40.2 °F 28.0 °F 58% 29.74 in 10.0 mi North 3.5 mph - 0.00 in Rain Light Rain
6:53 AM 42.1 °F - 26.1 °F 53% 29.71 in 10.0 mi Calm Calm - 0.00 in   Overcast
7:53 AM 39.0 °F 32.8 °F 28.0 °F 65% 29.70 in 10.0 mi NNE 9.2 mph - 0.00 in Rain Light Rain
8:53 AM 39.9 °F 35.8 °F 28.9 °F 65% 29.73 in 10.0 mi North 5.8 mph - 0.00 in Rain Light Rain
9:53 AM 37.0 °F 30.4 °F 32.0 °F 82% 29.74 in 8.0 mi North 9.2 mph - 0.01 in Rain Light Rain
10:18 AM 37.4 °F 30.3 °F 33.8 °F 87% 29.73 in 9.0 mi North 10.4 mph - 0.01 in Rain Light Rain
10:45 AM 35.6 °F 28.6 °F 33.8 °F 93% 29.72 in 6.0 mi North 9.2 mph - 0.02 in Rain Light Rain
10:53 AM 37.0 °F 31.0 °F 34.0 °F 89% 29.72 in 7.0 mi North 8.1 mph - 0.02 in Rain Light Rain
11:20 AM 37.4 °F 34.9 °F 35.6 °F 93% 29.71 in 9.0 mi Variable 3.5 mph - 0.00 in Rain Light Rain
11:53 AM 37.0 °F 33.3 °F 34.0 °F 89% 29.73 in 10.0 mi North 4.6 mph - 0.00 in   Overcast
12:46 PM 35.6 °F 30.7 °F 33.8 °F 93% 29.74 in 3.0 mi NNW 5.8 mph - 0.05 in Rain Light Rain
12:53 PM 36.0 °F 31.1 °F 34.0 °F 93% 29.75 in 4.0 mi NNW 5.8 mph - 0.05 in Rain Light Rain
1:53 PM 36.0 °F 29.0 °F 34.0 °F 93% 29.78 in 6.0 mi NNW 9.2 mph - 0.03 in Rain Light Rain
2:22 PM 35.6 °F 26.2 °F 33.8 °F 93% 29.77 in 10.0 mi NNW 15.0 mph 20.7 mph 0.00 in Rain Light Rain
2:31 PM 35.6 °F 26.6 °F 33.8 °F 93% 29.77 in 9.0 mi NNW 13.8 mph 20.7 mph 0.00 in   Overcast
2:53 PM 36.0 °F 29.0 °F 33.1 °F 89% 29.80 in 10.0 mi NNW 9.2 mph 18.4 mph 0.00 in   Overcast
3:53 PM 35.1 °F 27.9 °F 32.0 °F 89% 29.83 in 10.0 mi NW 9.2 mph - 0.00 in   Overcast
4:53 PM 36.0 °F 30.3 °F 32.0 °F 86% 29.85 in 10.0 mi WNW 6.9 mph - N/A   Overcast
5:53 PM 35.1 °F 29.3 °F 30.9 °F 85% 29.87 in 10.0 mi WNW 6.9 mph - N/A   Overcast
6:53 PM 34.0 °F 28.8 °F 30.0 °F 85% 29.91 in 10.0 mi West 5.8 mph - N/A   Overcast
7:12 PM 35.6 °F 31.7 °F 30.2 °F 81% 29.90 in 10.0 mi West 4.6 mph - N/A   Overcast
7:53 PM 35.1 °F 32.2 °F 32.0 °F 89% 29.94 in 10.0 mi West 3.5 mph - N/A   Overcast
8:08 PM 35.6 °F - 32.0 °F 87% 29.92 in 10.0 mi Calm Calm - N/A   Overcast
8:34 PM 35.6 °F 32.8 °F 30.2 °F 81% 29.92 in 10.0 mi WSW 3.5 mph - N/A   Mostly Cloudy
8:53 PM 34.0 °F 29.8 °F 30.9 °F 89% 29.95 in 10.0 mi SW 4.6 mph - N/A   Mostly Cloudy
9:06 PM 33.8 °F 30.8 °F 30.2 °F 87% 29.93 in 10.0 mi WSW 3.5 mph - N/A   Scattered Clouds
9:53 PM 33.1 °F - 30.9 °F 92% 29.97 in 10.0 mi Calm Calm - N/A   Clear
10:53 PM 30.0 °F - 28.9 °F 96% 29.97 in 3.0 mi Calm Calm - N/A   Scattered Clouds
11:26 PM 30.2 °F - 28.4 °F 93% 29.96 in 1.8 mi Calm Calm - N/A   Clear
11:37 PM 30.2 °F 25.4 °F 28.4 °F 93% 29.96 in 3.0 mi South 4.6 mph - N/A   Clear
11:53 PM 30.0 °F 26.5 °F 28.9 °F 96% 29.99 in 4.0 mi SSW 3.5 mph - N/A   Clear